Theta_e
294 293 293 293 293 292 292 292 292 293 293 293 294 294 295 298 298 300 301 302 306 307 307 308 309 312 313 313 313 313 314 314 315 312 313 314 313 315 313 312 309 308 306
292 292 291 292 292 292 292 292 292 292 292 294 293 294 294 295 297 298 299 301 303 306 308 308 307 311 312 312 312 313 313 314 312 311 311 312 312 312 313 313 310 308 305
292 291 292 292 292 292 292 293 294 295 295 294 293 293 293 294 296 297 296 296 300 302 308 309 309 311 312 313 311 309 311 310 312 312 313 314 312 313 312 310 308 306 304
292 292 292 292 292 293 295 296 296 296 296 295 295 294 293 293 295 295 296 296 299 302 305 309 310 310 311 310 310 309 310 311 311 311 312 312 313 311 310 310 307 306 303
291 293 293 293 295 297 297 297 297 297 297 297 295 295 294 294 295 295 296 296 297 301 304 309 309 311 310 310 308 307 308 310 310 310 309 308 307 307 312 311 306 305 302
292 294 294 295 296 298 298 297 297 297 297 296 296 295 294 294 295 295 296 295 297 299 304 308 310 310 310 309 307 307 309 310 309 308 306 308 310 310 309 306 304 303 299
293 294 294 295 298 298 297 297 297 296 297 297 297 295 294 294 294 295 295 295 297 299 303 308 308 309 310 309 306 308 310 309 309 309 309 308 309 311 310 308 307 308 304
293 293 294 296 297 298 298 297 298 297 296 296 295 294 294 294 295 295 296 297 298 299 302 308 309 309 308 307 307 308 307 304 304 305 305 307 309 311 310 309 307 303 298
292 292 293 295 296 297 298 296 297 298 298 297 296 296 296 296 296 297 296 297 298 301 305 307 308 308 308 307 307 307 304 302 301 302 301 304 307 306 306 304 301 299 297
291 292 292 293 294 295 297 297 297 298 298 297 297 297 297 297 298 298 298 300 301 303 307 308 307 306 307 307 307 306 303 301 301 299 300 301 301 301 299 298 299 299 297
293 293 291 293 293 294 296 296 297 298 298 298 298 298 299 298 299 300 300 300 302 306 306 304 305 305 305 304 302 301 301 299 298 299 299 299 299 299 296 297 296 294 293
294 293 292 293 293 294 295 296 297 298 297 297 298 298 299 300 301 299 301 301 302 304 304 303 302 301 301 300 299 299 298 297 298 299 299 298 297 297 294 291 289 289 289
295 292 293 293 293 294 295 295 297 296 297 297 297 298 300 301 301 300 301 301 302 303 301 300 298 296 296 295 296 296 296 298 297 297 297 295 292 290 289 289 289 289 288
296 293 293 293 293 294 294 295 295 295 296 295 294 293 294 296 295 296 298 300 299 298 296 294 294 294 295 296 295 295 295 296 296 296 294 292 289 289 289 288 288 289 289
297 296 294 293 293 294 293 294 294 294 295 294 293 293 293 293 292 293 295 295 294 294 294 294 295 295 294 293 293 293 292 291 290 289 289 288 288 288 289 289 289 289 288
298 297 296 295 294 293 294 294 294 294 294 295 295 295 293 292 293 293 293 293 294 295 295 295 295 294 294 293 292 289 288 288 288 288 288 288 288 288 288 288 287 287 286
297 297 297 296 297 296 296 295 294 293 294 294 294 294 294 294 295 295 295 295 295 296 296 294 293 290 288 287 288 288 288 288 288 288 288 288 288 288 288 286 285 284 283
292 295 294 293 292 291 290 289 289 289 288 288 288 288 289 291 292 293 294 295 294 292 290 288 287 287 287 287 288 288 288 288 289 289 288 287 286 285 284 282 280 278 276
291 291 291 290 290 290 290 290 290 290 289 289 289 289 289 289 289 288 288 289 288 288 288 288 288 288 288 289 289 289 289 288 286 285 284 282 280 278 277 276 276 275 274
292 291 291 291 291 290 290 290 291 291 291 290 290 290 290 290 290 289 289 289 289 289 289 290 289 289 289 288 286 285 285 284 281 280 279 278 277 277 276 275 274 273 272
292 292 292 291 291 291 292 292 292 292 291 291 291 290 290 290 290 290 290 290 290 290 289 289 287 286 285 285 283 282 281 280 279 278 278 277 275 275 274 273 272 271 270
292 292 292 292 291 291 291 291 291 291 291 291 290 290 289 289 289 289 289 289 288 287 286 286 285 284 283 281 280 280 279 278 277 276 275 275 274 273 272 271 270 270 269
293 292 292 291 291 291 291 291 291 291 291 290 290 290 289 289 290 289 287 286 286 285 284 283 282 281 280 279 278 277 277 277 276 275 274 273 272 271 271 270 269 269 268
298 292 292 292 291 291 291 291 290 290 290 290 290 290 290 290 288 287 286 286 285 283 282 280 279 278 278 277 277 276 276 275 275 273 272 272 271 270 270 269 268 268 267
300 299 297 292 291 291 291 290 290 290 290 290 290 290 289 287 287 286 285 283 281 280 280 279 279 278 277 277 276 275 275 274 273 272 271 270 270 269 269 268 267 267 267
300 298 298 296 295 292 291 291 291 291 290 290 290 289 287 286 286 285 283 281 280 279 279 279 278 277 277 276 275 274 274 273 272 271 270 270 269 268 268 267 267 267 266
Wind_Speed
33 32 30 31 32 33 34 34 35 35 35 38 37 37 39 32 42 36 36 38 37 40 40 41 42 41 43 49 53 51 47 48 41 38 52 57 52 55 56 54 54 50 48
34 32 30 31 31 32 32 33 32 36 35 35 36 37 35 38 39 42 40 36 38 38 40 40 43 42 42 43 45 47 51 53 50 48 50 50 53 54 55 57 57 54 50
33 32 31 31 32 32 31 31 31 32 33 33 32 34 33 37 37 40 42 44 47 41 37 40 43 43 46 48 47 47 48 48 54 53 47 43 45 50 51 52 52 54 53
32 31 31 32 32 32 31 30 30 30 32 32 32 32 32 35 38 39 39 39 40 37 37 39 41 44 44 46 45 43 45 51 53 53 50 49 51 49 46 49 49 48 52
30 29 29 28 28 28 30 32 32 30 31 31 28 29 29 30 32 35 35 34 40 33 39 35 42 41 42 46 42 41 44 49 49 52 52 46 45 45 47 46 46 44 47
28 26 26 27 27 28 30 30 28 26 26 23 23 24 26 28 31 32 35 34 35 26 35 32 39 42 39 38 33 38 41 41 44 50 51 51 50 47 45 47 42 41 41
25 25 25 25 25 26 26 24 23 20 13 9 13 17 20 23 25 26 26 29 32 29 31 30 36 35 33 30 30 30 38 40 39 39 45 48 47 40 40 40 37 39 42
24 23 23 22 23 24 23 21 19 17 14 8 6 9 13 18 19 23 24 23 26 30 29 36 35 30 30 27 29 33 36 33 33 33 36 42 45 39 38 30 33 35 34
25 23 22 21 22 21 21 20 18 16 14 9 4 3 8 9 11 14 19 23 23 28 26 31 26 27 26 24 27 30 31 28 26 25 28 28 31 26 31 27 24 25 24
24 22 21 19 19 18 17 16 16 16 16 14 7 2 4 4 5 4 13 19 18 28 29 24 21 21 22 23 26 30 29 26 25 26 23 20 21 19 15 13 16 20 19
21 20 18 17 16 14 14 13 12 13 18 19 17 12 6 5 4 7 7 10 21 26 21 18 16 15 17 19 17 21 21 23 24 26 28 23 19 21 21 18 16 12 13
17 17 16 16 14 13 13 13 13 14 18 20 20 20 15 10 5 2 5 3 13 14 15 14 12 12 13 12 13 13 16 26 29 25 22 23 23 21 16 13 13 12 13
16 15 15 14 13 13 14 14 15 16 19 18 19 18 18 10 7 7 7 5 5 7 11 13 17 18 16 15 15 25 29 25 27 28 27 23 19 15 13 12 11 11 12
16 13 14 18 17 17 18 18 18 20 17 18 19 20 19 17 15 14 14 12 11 18 23 26 24 24 27 28 26 27 29 27 24 22 19 16 14 12 11 10 10 9 10
15 14 15 18 21 23 26 25 26 26 24 25 22 21 21 20 18 18 21 26 29 31 32 31 32 32 33 32 30 27 24 20 18 17 15 13 10 8 6 5 7 8 8
14 14 16 18 22 25 27 29 29 29 28 28 28 28 26 22 20 23 26 28 30 32 33 32 32 31 29 26 24 22 19 17 14 12 10 8 7 4 3 4 6 7 8
8 11 14 16 19 21 24 26 28 28 29 31 30 29 27 27 25 25 26 26 27 28 31 30 28 25 24 21 19 17 16 13 11 9 8 6 4 3 4 5 5 6 9
2 3 6 7 9 11 14 17 19 21 25 26 25 26 25 25 25 24 23 22 24 23 24 24 23 21 20 18 17 15 13 11 8 6 5 4 2 1 2 2 3 4 5
5 4 3 4 6 8 9 11 14 18 20 21 20 19 21 20 19 19 17 19 21 22 21 21 19 18 16 14 12 11 10 9 8 7 6 5 4 3 3 2 3 4 6
11 9 7 6 6 7 8 9 10 12 14 15 15 16 14 14 15 17 16 16 18 18 18 17 17 15 14 14 13 12 11 10 8 7 6 5 4 4 4 5 6 8 10
16 14 12 11 9 8 8 7 7 8 9 11 11 12 11 10 13 14 15 15 16 16 16 15 16 15 14 13 12 10 9 8 7 6 5 4 6 7 8 8 9 11 14
20 18 16 14 12 11 10 9 8 8 8 8 9 9 10 9 11 13 14 15 16 16 16 15 15 13 13 11 10 8 8 7 8 8 8 7 7 8 10 12 14 15 17
24 23 21 19 18 16 15 13 12 10 10 11 12 12 13 12 13 14 16 17 17 16 16 15 13 12 12 10 10 9 8 8 8 8 8 10 11 11 11 12 14 15 14
25 26 24 23 21 19 18 16 14 12 12 13 14 14 15 16 17 17 17 17 16 15 14 13 12 11 10 9 8 7 8 9 9 9 9 9 9 9 10 12 14 13 11
31 29 27 26 23 22 20 17 16 15 15 15 16 16 17 17 17 17 16 15 14 14 13 11 10 9 8 7 8 9 8 8 8 8 7 7 8 9 10 12 11 10 8
35 32 30 27 25 23 21 19 18 18 18 18 18 18 18 19 18 17 17 16 14 13 11 10 8 7 6 7 7 7 7 6 6 6 6 8 9 11 11 10 10 8 8
Wind_Direction
305 308 303 296 293 294 291 287 283 278 271 262 258 257 249 246 234 231 231 230 230 229 228 224 227 222 221 225 226 228 228 224 227 229 230 228 228 231 229 232 231 232 235
319 314 312 309 307 304 298 295 289 284 277 268 260 255 248 245 242 238 235 230 233 232 229 223 223 222 222 223 227 229 228 235 234 230 232 225 225 231 228 235 231 231 234
323 318 321 318 316 308 306 303 298 291 284 274 264 255 247 239 236 233 235 240 234 233 232 222 220 216 221 222 228 232 235 236 225 227 227 228 227 229 233 233 234 232 233
324 327 328 323 318 317 314 308 301 294 287 277 266 257 250 239 235 237 235 239 229 232 230 225 217 217 219 221 223 230 235 231 227 230 232 234 230 225 227 228 227 230 231
332 333 330 327 327 325 323 318 312 300 288 278 266 254 247 237 233 235 233 234 230 236 221 226 216 212 221 227 228 235 237 234 233 232 233 225 219 217 220 232 223 224 225
337 335 335 333 333 333 327 326 321 311 299 273 260 253 244 232 231 233 232 237 233 236 217 229 216 214 224 231 234 243 245 239 239 235 231 230 234 229 224 219 213 215 220
340 339 339 335 338 334 337 340 342 337 321 284 261 251 241 228 229 230 229 224 229 231 222 229 213 223 226 231 238 242 247 249 249 251 245 239 235 231 221 211 214 226 225
346 345 337 335 338 341 346 350 357 2 358 342 283 246 231 224 225 224 225 212 222 230 224 214 211 221 224 229 228 232 238 238 234 241 244 242 230 225 220 218 224 220 221
352 344 338 339 339 347 352 355 4 9 8 2 336 244 216 218 220 216 214 223 226 211 224 222 218 221 222 221 223 227 227 225 223 233 232 227 222 219 214 215 211 211 213
351 344 342 347 347 355 4 4 20 15 17 17 18 119 193 189 190 159 201 194 207 210 204 211 212 219 222 227 229 224 219 215 222 210 206 181 168 159 167 193 208 200 196
353 348 349 355 359 2 13 14 35 42 43 53 60 75 87 131 159 137 196 198 207 192 186 190 198 205 218 225 215 217 217 203 200 183 160 158 156 160 164 163 166 180 211
357 356 358 10 14 18 31 38 43 55 63 64 68 78 82 93 101 98 167 190 169 169 173 180 175 162 177 183 184 189 189 169 162 161 157 148 146 145 149 170 191 205 218
11 8 18 27 29 41 48 56 59 59 66 69 76 81 85 93 108 107 125 139 136 166 155 150 142 149 149 144 145 156 157 161 155 142 136 135 137 151 173 188 205 219 232
24 34 45 53 52 59 64 61 59 63 66 78 83 89 96 100 99 105 106 113 127 136 137 133 140 140 135 135 145 145 143 139 134 127 124 138 160 172 185 203 220 236 253
32 47 64 70 70 68 63 60 62 65 69 76 81 89 92 92 100 113 124 134 137 134 131 132 133 131 130 134 133 128 122 118 126 139 146 154 164 180 195 227 253 263 266
46 54 67 80 83 84 81 79 74 75 76 78 80 81 85 91 102 108 114 120 125 129 128 128 128 132 130 125 122 125 130 135 137 140 142 155 170 181 210 242 262 259 265
49 70 74 80 84 89 93 92 87 83 83 82 85 90 94 101 103 106 112 118 124 126 122 125 125 126 127 130 129 129 131 136 142 146 147 152 169 209 244 252 271 287 296
122 95 88 84 84 85 89 92 98 97 93 91 91 92 94 99 101 105 109 114 117 121 122 124 126 129 131 133 132 132 130 124 122 126 141 156 169 199 249 291 309 309 301
191 187 160 125 118 108 97 95 96 96 96 95 97 98 98 99 103 106 115 120 124 126 127 127 126 126 126 125 124 126 127 128 128 127 128 130 123 92 70 44 6 348 340
209 198 189 175 154 139 129 119 113 109 108 109 109 105 104 108 114 116 123 122 123 123 125 126 126 128 128 127 124 122 121 118 115 110 102 92 74 52 33 25 16 6 359
215 206 200 193 188 177 166 152 140 133 130 129 125 121 120 130 133 135 134 132 129 127 127 127 124 122 119 118 117 118 116 110 102 94 88 79 65 48 34 19 9 6 4
215 213 209 206 203 204 196 190 182 173 166 155 147 138 127 140 136 132 131 129 128 126 123 122 122 122 122 120 117 118 118 108 93 74 60 49 39 32 26 19 12 5 0
217 217 214 214 212 212 211 208 205 199 191 178 169 162 154 156 151 147 142 138 136 135 134 133 130 127 125 122 112 98 84 77 68 55 45 39 31 23 15 9 6 2 360
218 218 218 217 217 214 214 215 210 201 193 186 176 166 161 160 156 151 147 145 142 138 134 131 125 119 111 102 95 85 68 52 45 40 32 21 13 10 6 3 0 358 359
218 220 219 218 217 216 215 215 210 205 195 183 176 171 165 161 157 153 149 144 141 137 133 129 121 114 107 94 75 60 43 34 34 20 10 8 10 7 358 353 355 352 352
216 217 220 215 214 216 216 214 210 203 194 186 178 173 170 165 161 157 154 152 150 145 138 133 128 115 89 67 54 41 26 14 10 8 8 6 8 359 352 354 352 348 349